Weather in San Sebastian de La Gomera

Spain     28°05′31″N   17°06′54″W
temp.,
°C
wind,
m/s
gust,
m/s
humid.,
%
clouds,
%
prec.,
mm/h
press.,
hPa
HPBL,
m
15 may, sat
sat1501:00+20nnw1011760 0.0 1018580
04:00+20nnw1112790 0.0 1016654
07:00+20nnw910740 0.0 1016645
10:00+21nnw1112740 0.0 1017599
13:00+21nnw911740 0.0 1017576
16:00+21nnw897111 0.0 1017621
19:00+21nw1112760 0.0 1016642
22:00+21nnw1212760 0.0 1016462
16 may, sun
sun1601:00+21nnw99740 0.0 1017345
04:00+21nw911740 0.0 1015459
07:00+21nnw910730 0.0 1015365
10:00+21nw787272 0.0 1017245
13:00+21nnw9107431 0.0 1018327
16:00+22nnw687597 0.0 1017337
19:00+22nw68765 0.0 1017263
22:00+22nw67775 0.0 1018148
17 may, mon
mon1701:00+21nw6777100 0.0 1018183
04:00+21wnw677744 0.0 1017136
07:00+21nnw8107350 0.0 1017218
10:00+22nnw9117171 0.0 1018233
13:00+23nw677156 0.0 1019124
16:00+22nw357477 0.0 1018205
19:00+22n101178100 0.0 1017240
22:00+22nnw10117294 0.0 1018228
18 may, tue
tue1801:00+22wnw6876100 0.0 1019183
04:00+21nnw5774100 0.0 1018153
07:00+21nnw7973100 0.0 1018172
10:00+22nnw786999 0.0 1019168
13:00+22nw6870100 0.0 1019141
16:00+22nnw34734 0.0 1018211
19:00+22wnw237394 0.0 101895
22:00+21nnw677848 0.0 1019167
19 may, wed
wed1901:00+21nnw9107756 0.0 1019314
04:00+21nnw91176100 0.0 1017300
07:00+21nnw897460 0.0 1017239
10:00+21nnw9107498 0.0 1018326
13:00+21nnw68770 0.0 1018427
16:00+21nnw1111770 0.0 1017380
19:00+21nnw1112735 0.0 1016418
22:00+21nnw1112731 0.0 1017390